CW3066 Weather Reports


time (UTC)temp
C
wind
direction
speed
KPH
gust
KPH
rain 1hr
cm
rain 24hr
cm
rain mn
cm
humidity
%
barometer
mb
20260509011539 16 311 0.0 0.0 0.00 0.00 0.00 45 1005.1
20260509010044 17 290 0.0 0.0 0.00 0.00 0.00 40 1005.2
20260509004537 18 306 0.0 0.0 0.00 0.00 0.00 36 1005.2
20260509003042 18 321 0.0 0.0 0.00 0.00 0.00 32 1005.5
20260509001536 19 297 0.0 1.6 0.00 0.00 0.00 31 1005.6
20260509000035 19 313 0.0 8.0 0.00 0.00 0.00 29 1005.7
20260508234535 20 323 0.0 4.8 0.00 0.00 0.00 27 1005.8
20260508233035 20 315 0.0 6.4 0.00 0.00 0.00 27 1005.8
20260508231534 21 344 0.0 14.5 0.00 0.00 0.00 26 1005.9
20260508230038 22 350 0.0 4.8 0.00 0.00 0.00 26 1005.9
20260508224536 22 351 0.0 4.8 0.00 0.00 0.00 26 1005.7
20260508223035 22 350 0.0 9.7 0.00 0.00 0.00 27 1005.9
20260508221531 22 350 0.0 11.3 0.00 0.00 0.00 27 1006.0
20260508220104 22 355 1.6 6.4 0.00 0.00 0.00 26 1005.8
20260508214530 22 350 1.6 11.3 0.00 0.00 0.00 26 1005.4
20260508213034 22 348 0.0 9.7 0.00 0.00 0.00 27 1005.8
20260508211530 22 349 0.0 9.7 0.00 0.00 0.00 27 1006.2
20260508210027 22 351 1.6 9.7 0.00 0.00 0.00 26 1006.4
20260508204524 22 349 1.6 9.7 0.00 0.00 0.00 26 1006.8
20260508203023 22 348 1.6 9.7 0.00 0.00 0.00 27 1006.9
20260508201526 22 351 1.6 8.0 0.00 0.00 0.00 27 1007.0
20260508200022 22 348 0.0 14.5 0.00 0.00 0.00 29 1006.9
20260508194520 22 355 0.0 11.3 0.00 0.00 0.00 27 1007.1
20260508193020 22 321 0.0 6.4 0.00 0.00 0.00 30 1007.2
20260508191520 21 355 0.0 6.4 0.00 0.00 0.00 32 1007.4
20260508190015 21 348 0.0 9.7 0.00 0.00 0.00 29 1007.5
20260508184519 21 350 1.6 8.0 0.00 0.00 0.00 27 1007.9
20260508183013 21 348 0.0 6.4 0.00 0.00 0.00 31 1008.1
20260508181510 21 346 0.0 9.7 0.00 0.00 0.00 28 1008.6
20260508180010 20 348 1.6 11.3 0.00 0.00 0.00 28 1009.0
20260508174519 20 351 1.6 8.0 0.00 0.00 0.00 29 1009.2
20260508173007 20 350 0.0 9.7 0.00 0.00 0.00 31 1009.6
20260508171506 20 348 0.0 9.7 0.00 0.00 0.00 33 1009.8
20260508170004 20 347 1.6 8.0 0.00 0.00 0.00 31 1010.2
20260508164503 20 345 0.0 3.2 0.00 0.00 0.00 37 1010.5
20260508163002 20 340 0.0 4.8 0.00 0.00 0.00 36 1010.7
20260508161559 19 344 0.0 4.8 0.00 0.00 0.00 39 1010.8
20260508160103 18 343 0.0 4.8 0.00 0.00 0.00 39 1011.1
20260508154556 18 338 0.0 9.7 0.00 0.00 0.00 40 1011.2
20260508153100 18 343 0.0 8.0 0.00 0.00 0.00 39 1011.4
20260508151553 17 347 0.0 6.4 0.00 0.00 0.00 37 1011.5
20260508150150 17 348 0.0 6.4 0.00 0.00 0.00 37 1011.6
20260508144553 16 341 0.0 4.8 0.00 0.00 0.00 38 1011.5
20260508143053 16 336 0.0 11.3 0.00 0.00 0.00 37 1011.6
20260508141554 15 340 0.0 6.4 0.00 0.00 0.00 42 1011.6
20260508140040 14 346 0.0 8.0 0.00 0.00 0.00 44 1011.6
20260508134542 13 349 1.6 8.0 0.00 0.00 0.00 46 1011.6
20260508133031 12 347 0.0 8.0 0.00 0.00 0.00 52 1011.5
20260508131526 10 337 0.0 3.2 0.00 0.00 0.00 72 1011.5
20260508130021 8 304 0.0 3.2 0.00 0.00 0.00 86 1011.5
20260508124518 7 272 0.0 0.0 0.00 0.00 0.00 93 1011.4
20260508123014 6 262 0.0 0.0 0.00 0.00 0.00 96 1011.5
20260508121513 5 257 0.0 0.0 0.00 0.00 0.00 96 1011.4
20260508120012 4 257 0.0 0.0 0.00 0.00 0.00 96 1011.4
20260508114511 3 254 0.0 0.0 0.00 0.00 0.00 96 1011.3
20260508113015 3 254 0.0 0.0 0.00 0.00 0.00 95 1010.9
20260508111509 2 254 0.0 0.0 0.00 0.00 0.00 95 1010.8
20260508110015 2 255 0.0 0.0 0.00 0.00 0.00 95 1010.8
20260508104509 2 253 0.0 0.0 0.00 0.00 0.00 95 1010.7
20260508103006 2 254 0.0 0.0 0.00 0.00 0.00 94 1010.4
20260508101507 2 253 0.0 0.0 0.00 0.00 0.00 94 1010.3
20260508100005 2 253 0.0 0.0 0.00 0.00 0.00 94 1010.2
20260508094505 2 253 0.0 0.0 0.00 0.00 0.00 94 1010.5
20260508093003 2 253 0.0 0.0 0.00 0.00 0.00 94 1010.4
20260508091503 3 253 0.0 0.0 0.00 0.00 0.00 93 1010.5
20260508084559 3 253 0.0 0.0 0.00 0.00 0.00 93 1010.6
20260508083058 3 298 0.0 0.0 0.00 0.00 0.00 93 1010.6
20260508081618 3 336 0.0 0.0 0.00 0.00 0.00 93 1010.5
20260508080056 3 340 0.0 0.0 0.00 0.00 0.00 93 1010.6
20260508074554 3 343 0.0 0.0 0.00 0.00 0.00 92 1010.5
20260508073053 3 344 0.0 0.0 0.00 0.00 0.00 92 1010.4
20260508071557 3 346 0.0 0.0 0.00 0.00 0.00 92 1010.5
20260508070054 4 346 0.0 0.0 0.00 0.00 0.00 92 1010.6
20260508064550 4 347 0.0 0.0 0.00 0.00 0.00 91 1010.6
20260508063057 4 347 0.0 0.0 0.00 0.00 0.00 90 1010.5
20260508061553 4 348 0.0 0.0 0.00 0.00 0.00 90 1010.4
20260508060052 4 348 0.0 0.0 0.00 0.00 0.00 90 1010.6
20260508054544 5 348 0.0 0.0 0.00 0.00 0.00 89 1010.8
20260508053043 5 348 0.0 0.0 0.00 0.00 0.00 88 1010.8
20260508051540 5 348 0.0 0.0 0.00 0.00 0.00 87 1010.8
20260508050042 5 317 0.0 0.0 0.00 0.00 0.00 86 1010.7
20260508044537 5 339 0.0 0.0 0.00 0.00 0.00 85 1010.6
20260508043035 6 343 0.0 0.0 0.00 0.00 0.00 84 1010.6
20260508041535 6 346 0.0 0.0 0.00 0.00 0.00 83 1010.6
20260508040038 6 348 0.0 0.0 0.00 0.00 0.00 81 1010.6
20260508034533 6 348 0.0 0.0 0.00 0.00 0.00 78 1010.7
20260508033032 7 349 0.0 0.0 0.00 0.00 0.00 75 1010.7
20260508031536 7 350 0.0 0.0 0.00 0.00 0.00 72 1010.9
20260508030031 7 350 0.0 0.0 0.00 0.00 0.00 69 1010.7
20260508024544 8 350 0.0 0.0 0.00 0.00 0.00 68 1010.6
20260508023032 8 350 0.0 0.0 0.00 0.00 0.00 64 1010.6
20260508021530 9 350 0.0 0.0 0.00 0.00 0.00 61 1010.5
20260508020029 10 351 0.0 0.0 0.00 0.00 0.00 56 1010.4
20260508014532 10 351 0.0 0.0 0.00 0.00 0.00 52 1010.0
20260508013028 11 351 0.0 0.0 0.00 0.00 0.00 49 1010.0